User: anonymous   Login
Location: Unspecified
(0.0000°N, 0.0000°E)
Time: 14:47:03
(UTC+00:00)
Language:

UWE-2 - Orbit

View from above orbital plane
View from above orbital plane
View from above satellite
View from above satellite

Ground track
Ground track

The orbit data is extracted from the following two-line orbital elements,

1 35934U 09051D   17202.86932390 +.00000061 +00000-0 +24965-4 0  9998
2 35934 098.4952 340.6438 0007155 151.7554 208.4032 14.55666218415303
Epoch (UTC): 21 July 2017 20:51:49
Eccentricity: 0.0007155
inclination: 98.4952°
perigee height: 702 km
apogee height: 712 km
right ascension of ascending node: 340.6438°
argument of perigee: 151.7554°
revolutions per day: 14.55666218
mean anomaly at epoch: 208.4032°
orbit number at epoch: 41530

The dashed part of the orbit path shows where the satellite is in the earth's shadow,  

DLR